CW5444 Weather Reports


Display with metric or nautical units.
time (UTC)temp
F
wind
direction
speed
MPH
gust
MPH
rain 1hr
in
rain 24hr
in
rain mn
in
humidity
%
barometer
mb
20260510203421 68 187 3.0 11.0 0.00 0.00 0.00 67 1017.0
20260510202425 70 194 8.0 15.0 0.00 0.00 0.00 60 1017.0
20260510201453 71 180 4.0 6.0 0.00 0.00 0.00 60 1016.8
20260510200419 72 192 4.0 7.0 0.00 0.00 0.00 55 1016.8
20260510195427 74 169 1.0 9.0 0.00 0.00 0.00 54 1016.7
20260510194433 76 217 5.0 13.0 0.00 0.00 0.00 50 1016.7
20260510193422 76 194 3.0 11.0 0.00 0.00 0.00 53 1016.7
20260510192448 76 188 6.0 10.0 0.00 0.00 0.00 52 1016.8
20260510191432 75 162 5.0 8.0 0.00 0.00 0.00 55 1016.8
20260510190420 75 159 4.0 9.0 0.00 0.00 0.00 52 1016.9
20260510185427 75 196 6.0 12.0 0.00 0.00 0.00 56 1017.0
20260510184418 75 173 2.0 12.0 0.00 0.00 0.00 55 1016.9
20260510183446 75 162 5.0 11.0 0.00 0.00 0.00 58 1017.0
20260510182430 74 215 5.0 8.0 0.00 0.00 0.00 55 1017.1
20260510181416 74 198 2.0 8.0 0.00 0.00 0.00 58 1017.1
20260510180422 74 172 4.0 11.0 0.00 0.00 0.00 59 1017.2
20260510175429 74 195 3.0 10.0 0.00 0.00 0.00 57 1017.2
20260510174432 73 209 4.0 9.0 0.00 0.00 0.00 62 1017.3
20260510173434 72 184 4.0 9.0 0.00 0.00 0.00 63 1017.5
20260510172421 72 194 4.0 8.0 0.00 0.00 0.00 60 1017.7
20260510171428 72 171 5.0 10.0 0.00 0.00 0.00 61 1017.9
20260510170416 72 167 3.0 7.0 0.00 0.00 0.00 60 1017.9
20260510165428 72 150 3.0 10.0 0.00 0.00 0.00 60 1017.9
20260510164433 71 147 3.0 8.0 0.00 0.00 0.00 60 1017.9
20260510163420 71 195 2.0 7.0 0.00 0.00 0.00 64 1018.0
20260510162449 70 143 2.0 8.0 0.00 0.00 0.00 62 1018.1
20260510161417 70 153 2.0 11.0 0.00 0.00 0.00 63 1018.1
20260510160422 70 182 2.0 5.0 0.00 0.00 0.00 65 1018.1
20260510155429 69 166 5.0 10.0 0.00 0.00 0.00 65 1018.1
20260510154417 68 184 4.0 9.0 0.00 0.00 0.00 67 1018.2
20260510153423 68 200 3.0 7.0 0.00 0.00 0.00 71 1018.2
20260510152430 67 186 2.0 5.0 0.00 0.00 0.00 73 1018.2
20260510151417 66 171 0.0 5.0 0.00 0.00 0.00 74 1018.0
20260510150444 65 188 3.0 8.0 0.00 0.00 0.00 74 1018.2
20260510145429 65 167 5.0 7.0 0.00 0.00 0.00 74 1018.2
20260510144416 64 208 4.0 8.0 0.00 0.00 0.00 74 1018.3
20260510143424 64 182 3.0 8.0 0.00 0.00 0.00 76 1018.3
20260510142432 63 178 2.0 8.0 0.00 0.00 0.00 78 1018.3
20260510141452 62 198 3.0 9.0 0.00 0.00 0.00 79 1018.3
20260510140418 61 191 1.0 6.0 0.00 0.00 0.00 81 1018.2
20260510135425 60 184 2.0 6.0 0.00 0.00 0.00 83 1018.2
20260510134432 59 176 4.0 11.0 0.00 0.00 0.00 85 1018.4
20260510133417 58 192 2.0 5.0 0.00 0.00 0.00 87 1018.1
20260510132422 57 202 3.0 6.0 0.00 0.00 0.00 91 1018.1
20260510131416 56 186 2.0 4.0 0.00 0.00 0.00 93 1018.3
20260510130424 54 186 2.0 5.0 0.00 0.00 0.00 94 1018.2
20260510125431 53 180 2.0 4.0 0.00 0.00 0.00 94 1018.1
20260510124419 51 191 0.0 0.0 0.00 0.00 0.00 94 1018.3
20260510123426 50 191 0.0 0.0 0.00 0.00 0.00 94 1018.1
20260510122433 49 191 0.0 0.0 0.00 0.00 0.00 94 1018.0
20260510121421 48 191 0.0 0.0 0.00 0.00 0.00 94 1017.9
20260510120423 46 191 0.0 0.0 0.00 0.00 0.00 94 1017.9
20260510115428 45 191 0.0 0.0 0.00 0.00 0.00 94 1017.7
20260510114433 44 191 0.0 0.0 0.00 0.00 0.00 93 1017.4
20260510113425 43 191 0.0 0.0 0.00 0.00 0.00 93 1017.4
20260510112454 42 191 0.0 0.0 0.00 0.00 0.00 93 1017.4
20260510111441 41 191 0.0 0.0 0.00 0.00 0.00 92 1017.2
20260510110427 41 191 0.0 0.0 0.00 0.00 0.00 92 1017.1
20260510105434 40 191 0.0 0.0 0.00 0.00 0.00 91 1016.9
20260510104418 40 191 0.0 0.0 0.00 0.00 0.00 91 1016.8
20260510103423 40 191 0.0 0.0 0.00 0.00 0.00 91 1016.6
20260510102432 40 191 0.0 0.0 0.00 0.00 0.00 90 1016.4
20260510101417 40 191 0.0 0.0 0.00 0.00 0.00 90 1016.2
20260510100425 40 191 0.0 0.0 0.00 0.00 0.00 90 1016.2
20260510095434 41 191 0.0 0.0 0.00 0.00 0.00 90 1016.1
20260510094422 41 191 0.0 0.0 0.00 0.00 0.00 90 1015.9
20260510093429 41 191 0.0 0.0 0.00 0.00 0.00 91 1015.8
20260510092417 41 191 0.0 0.0 0.00 0.00 0.00 90 1015.8
20260510091424 42 191 0.0 0.0 0.00 0.00 0.00 90 1015.6
20260510090430 42 191 0.0 0.0 0.00 0.00 0.00 90 1015.5
20260510085416 42 191 0.0 0.0 0.00 0.00 0.00 90 1015.5
20260510084422 43 191 0.0 0.0 0.00 0.00 0.00 90 1015.4
20260510083428 43 191 0.0 0.0 0.00 0.00 0.00 91 1015.3
20260510082434 43 191 0.0 0.0 0.00 0.00 0.00 90 1015.3
20260510081422 43 191 0.0 0.0 0.00 0.00 0.00 91 1015.2
20260510080432 43 191 0.0 0.0 0.00 0.00 0.00 90 1015.0
20260510075416 43 191 0.0 0.0 0.00 0.00 0.00 90 1014.7
20260510074423 43 191 0.0 0.0 0.00 0.00 0.00 90 1014.6
20260510073430 44 191 0.0 0.0 0.00 0.00 0.00 90 1014.6
20260510072416 44 191 0.0 0.0 0.00 0.00 0.00 90 1014.7
20260510071421 44 191 0.0 0.0 0.00 0.00 0.00 90 1014.6
20260510070428 45 191 0.0 0.0 0.00 0.00 0.00 90 1014.7
20260510065433 45 191 0.0 0.0 0.00 0.00 0.00 90 1014.6
20260510064442 45 191 0.0 0.0 0.00 0.00 0.00 89 1014.7
20260510063446 45 191 0.0 0.0 0.00 0.00 0.00 89 1014.5
20260510062431 45 191 0.0 1.0 0.00 0.00 0.00 90 1014.6
20260510061421 45 191 0.0 0.0 0.00 0.00 0.00 89 1014.5
20260510060424 45 191 0.0 0.0 0.00 0.00 0.00 89 1014.6
20260510055430 46 191 0.0 0.0 0.00 0.00 0.00 89 1014.6
20260510054434 46 191 0.0 0.0 0.00 0.00 0.00 89 1014.6
20260510053438 46 191 0.0 0.0 0.00 0.00 0.00 88 1014.5
20260510052444 47 191 0.0 0.0 0.00 0.00 0.00 89 1014.5
20260510051426 47 191 0.0 0.0 0.00 0.00 0.00 89 1014.5
20260510050433 47 191 0.0 0.0 0.00 0.00 0.00 88 1014.4
20260510045418 48 191 0.0 0.0 0.00 0.00 0.00 88 1014.5
20260510044420 48 191 0.0 0.0 0.00 0.00 0.00 88 1014.4
20260510043425 48 191 0.0 0.0 0.00 0.00 0.00 88 1014.4
20260510042431 49 191 0.0 1.0 0.00 0.00 0.00 87 1014.4
20260510041417 49 191 0.0 0.0 0.00 0.00 0.00 86 1014.4
20260510040427 49 191 0.0 0.0 0.00 0.00 0.00 87 1014.2
20260510035431 49 191 0.0 2.0 0.00 0.00 0.00 86 1014.2
20260510034415 50 191 0.0 0.0 0.00 0.00 0.00 86 1014.4
20260510033420 50 191 0.0 0.0 0.00 0.00 0.00 85 1014.3
20260510032426 51 191 0.0 0.0 0.00 0.00 0.00 85 1014.2
20260510031451 51 191 0.0 0.0 0.00 0.00 0.00 85 1014.2
20260510030434 51 191 0.0 0.0 0.00 0.00 0.00 84 1014.1
20260510025418 52 191 0.0 0.0 0.00 0.00 0.00 84 1014.1
20260510024426 52 191 0.0 0.0 0.00 0.00 0.00 83 1013.9
20260510023433 53 191 0.0 0.0 0.00 0.00 0.00 83 1013.9
20260510022421 53 191 0.0 0.0 0.00 0.00 0.00 83 1013.7
20260510021445 53 191 0.0 0.0 0.00 0.00 0.00 82 1013.7
20260510020432 54 191 0.0 0.0 0.00 0.00 0.00 81 1013.5
20260510015418 54 191 0.0 0.0 0.00 0.00 0.00 80 1013.4
20260510014423 55 191 0.0 0.0 0.00 0.00 0.00 80 1013.2
20260510013428 56 191 0.0 0.0 0.00 0.00 0.00 78 1013.0
20260510012432 56 191 0.0 0.0 0.00 0.00 0.00 77 1012.9
20260510011434 57 191 0.0 0.0 0.00 0.00 0.00 75 1012.8
20260510010441 58 191 0.0 0.0 0.00 0.00 0.00 74 1012.5
20260510005445 59 191 0.0 0.0 0.00 0.00 0.00 72 1012.3
20260510004428 60 191 0.0 0.0 0.00 0.00 0.00 70 1012.1
20260510003431 61 191 0.0 0.0 0.00 0.00 0.00 68 1011.9
20260510002434 63 191 0.0 1.0 0.00 0.00 0.00 66 1011.9
20260510001420 64 191 1.0 2.0 0.00 0.00 0.00 65 1011.7
20260510000428 65 191 1.0 4.0 0.00 0.00 0.00 62 1011.7
20260509235437 65 191 1.0 5.0 0.00 0.00 0.00 61 1011.6
20260509234443 66 188 3.0 7.0 0.00 0.00 0.00 60 1011.7
20260509233449 67 196 3.0 8.0 0.00 0.00 0.00 58 1011.8
20260509232433 68 196 4.0 9.0 0.00 0.00 0.00 55 1011.6
20260509231422 69 141 3.0 7.0 0.00 0.00 0.00 56 1011.7
20260509230427 69 177 3.0 8.0 0.00 0.00 0.00 56 1011.5
20260509225452 69 180 4.0 7.0 0.00 0.00 0.00 56 1011.4
20260509224437 70 200 5.0 10.0 0.00 0.00 0.00 55 1011.3
20260509223422 70 196 5.0 8.0 0.00 0.00 0.00 55 1011.3
20260509222429 70 178 5.0 9.0 0.00 0.00 0.00 55 1011.4
20260509221435 70 222 5.0 11.0 0.00 0.00 0.00 54 1011.2
20260509220422 70 182 4.0 10.0 0.00 0.00 0.00 56 1011.1
20260509215416 70 148 6.0 10.0 0.00 0.00 0.00 56 1011.3
20260509214422 70 165 5.0 9.0 0.00 0.00 0.00 58 1011.4
20260509213429 69 175 4.0 11.0 0.00 0.00 0.00 56 1011.3
20260509212435 70 190 4.0 13.0 0.00 0.00 0.00 57 1011.3
20260509211422 70 180 5.0 12.0 0.00 0.00 0.00 56 1011.2
20260509210428 70 184 5.0 11.0 0.00 0.00 0.00 58 1011.1
20260509205416 69 167 5.0 10.0 0.00 0.00 0.00 57 1011.2
20260509204422 69 173 6.0 9.0 0.00 0.00 0.00 57 1011.1